This is the latest recevied weather packets stored in our database for station/object KD4WXI. If no packets are shown the sender has not sent any weather packets the latest 10 day(s).
| Time | Temp. | Humidity | Pressure | Rain* | Wind** | Luminosity | Snow |
|---|---|---|---|---|---|---|---|
| 1777951671 | 11.11° C | 78% | 1015.8 hPa | 0 mm | - | 0 W/m² | - |
| 1777951367 | 11.67° C | 76% | 1015.6 hPa | 0 mm | - | 0 W/m² | - |
| 1777951064 | 11.67° C | 74% | 1015.7 hPa | 0 mm | - | 0 W/m² | - |
| 1777950761 | 11.67° C | 75% | 1015.7 hPa | 0 mm | - | 0 W/m² | - |
| 1777950458 | 12.22° C | 75% | 1015.6 hPa | 0 mm | - | 0 W/m² | - |
| 1777950154 | 11.67° C | 73% | 1015.7 hPa | 0 mm | - | 0 W/m² | - |
| 1777949850 | 11.67° C | 74% | 1015.5 hPa | 0 mm | - | 0 W/m² | - |
| 1777949548 | 11.67° C | 74% | 1015.7 hPa | 0 mm | - | 0 W/m² | - |
| 1777949246 | 12.22° C | 74% | 1015.5 hPa | 0 mm | - | 0 W/m² | - |
| 1777948943 | 12.78° C | 72% | 1015.5 hPa | 0 mm | - | 0 W/m² | - |
| 1777948640 | 13.33° C | 70% | 1015.5 hPa | 0 mm | - | 0 W/m² | - |
| 1777948337 | 13.89° C | 67% | 1015.4 hPa | 0 mm | - | 0 W/m² | - |
| 1777948035 | 13.33° C | 65% | 1015.5 hPa | 0 mm | - | 0 W/m² | - |
| 1777947731 | 13.33° C | 62% | 1015.4 hPa | 0 mm | - | 0 W/m² | - |
| 1777947428 | 13.33° C | 67% | 1015.3 hPa | 0 mm | - | 0 W/m² | - |
| 1777947125 | 13.33° C | 65% | 1015.4 hPa | 0 mm | - | 0 W/m² | - |
| 1777946821 | 13.33° C | 67% | 1015.5 hPa | 0 mm | - | 0 W/m² | - |
| 1777946516 | 13.89° C | 65% | 1015.5 hPa | 0 mm | - | 0 W/m² | - |
| 1777946214 | 13.89° C | 65% | 1015.2 hPa | 0 mm | - | 0 W/m² | - |
| 1777945910 | 13.89° C | 63% | 1015.2 hPa | 0 mm | - | 0 W/m² | - |
| 1777945608 | 13.89° C | 61% | 1015.2 hPa | 0 mm | - | 0 W/m² | - |
| 1777945305 | 14.44° C | 63% | 1015.3 hPa | 0 mm | - | 0 W/m² | - |
| 1777945002 | 14.44° C | 63% | 1015.2 hPa | 0 mm | - | 0 W/m² | - |
| 1777944699 | 14.44° C | 63% | 1015.2 hPa | 0 mm | - | 0 W/m² | - |
| 1777944398 | 14.44° C | 66% | 1015.2 hPa | 0 mm | - | 0 W/m² | - |
* Rain latest hour (hover to see other rain measurements)
** Current wind speed in m/s (hover to see current wind gust speed)